KLM249 CYHZ-EHAM

Flight info

Callsign KLM249
Flight time N/A
Altitude 39000
Route YHZ DCT IGTAS DCT NOTOP DCT MUSAK/M085F390 DCT 4830N05000W 51N040W 53N030W 54N020W DCT VENER/N0488F390 DCT KOKIB DCT REVNU/N0487F410 DCT OLAPO DCT LIFFY DCT DOLAS L603 LAMSO
Aircraft A359/H-SDE2E3GHIJ3J4J5LM1ORWXY/LB1D1

Departure

Time 2026-04-30 21:21
Airport Halifax / Stanfield International Airport (CYHZ)

Arrival

Time N/A
Airport Amsterdam Airport Schiphol (EHAM)
Time Latitude Longitude Altitude Speed Heading
2026-04-30 21:13 44.86768 -63.53278 464 ft 0 kts 221°
2026-04-30 21:16 44.86775 -63.53269 465 ft 2 kts 221°
2026-04-30 21:16 44.86788 -63.53254 465 ft 2 kts 221°
2026-04-30 21:16 44.86801 -63.53238 465 ft 3 kts 198°
2026-04-30 21:16 44.86818 -63.53235 465 ft 3 kts 160°
2026-04-30 21:17 44.86834 -63.53247 463 ft 3 kts 124°
2026-04-30 21:17 44.86841 -63.53269 465 ft 3 kts 88°
2026-04-30 21:17 44.86839 -63.53289 461 ft 0 kts 69°
2026-04-30 21:18 44.86839 -63.53255 463 ft 4 kts 97°
2026-04-30 21:18 44.86832 -63.53228 462 ft 1 kts 112°
2026-04-30 21:18 44.86818 -63.53195 462 ft 10 kts 124°
2026-04-30 21:18 44.86762 -63.53096 464 ft 12 kts 129°
2026-04-30 21:19 44.86716 -63.53011 463 ft 9 kts 123°
2026-04-30 21:19 44.86687 -63.52947 465 ft 6 kts 123°
2026-04-30 21:19 44.86665 -63.52901 463 ft 6 kts 123°
2026-04-30 21:19 44.86639 -63.52845 463 ft 6 kts 124°
2026-04-30 21:20 44.86617 -63.52799 463 ft 5 kts 124°
2026-04-30 21:20 44.86603 -63.52752 464 ft 5 kts 98°
2026-04-30 21:20 44.86634 -63.52655 465 ft 19 kts 43°
2026-04-30 21:20 44.86664 -63.52624 465 ft 0 kts 35°
2026-04-30 21:21 44.86830 -63.52458 466 ft 63 kts 36°
2026-04-30 21:21 44.87366 -63.51936 464 ft 122 kts 34°
2026-04-30 21:21 44.89170 -63.50209 1216 ft 161 kts 40°
2026-04-30 21:22 44.90241 -63.49485 1589 ft 188 kts 16°
2026-04-30 21:22 44.92303 -63.45040 2232 ft 223 kts 92°
2026-04-30 21:23 44.92368 -63.42771 2641 ft 238 kts 90°
2026-04-30 21:23 44.92572 -63.40388 3195 ft 249 kts 85°
2026-04-30 21:23 44.93654 -63.35620 4402 ft 266 kts 71°
2026-04-30 21:24 44.94460 -63.33212 4955 ft 275 kts 68°
2026-04-30 21:24 44.95339 -63.30779 5582 ft 278 kts 66°
2026-04-30 21:24 44.96232 -63.28342 6287 ft 280 kts 67°
2026-04-30 21:24 44.97120 -63.25876 6964 ft 283 kts 68°
2026-04-30 21:25 44.98855 -63.20893 8750 ft 285 kts 68°
2026-04-30 21:25 44.99716 -63.18360 9650 ft 287 kts 68°